Showing default

AGILA, 62456

Orbit data source: Space-Track

AGILA, 62456 is a UK payload satellite in GEO that was launched on Sun, 29 Dec 2024 UTC via an FALCON 9 launch vehicle from the Air Force Eastern Test Range (AFETR). Payload-class satellites include a variety of spacecraft equipped with specific instruments for various scientific and technological missions. These include communications satellites like Starlink; space stations such as the ISS; scientific satellites like the Hubble; Earth observation satellites from companies like Planet Labs, Umbra, and HawkEye 360; GPS; miniature CubeSats for education and research; and military/defense satellites.

Not visible in the next 10 days
Identifier
62456, 2024-252C
Orbit
GEO
Country
Flag of UKUK
Related business
Manufacturer
Astranis
Mission
Operational Commercial Communications
Bus & Motor
MICROGEO, EP
Mass
400 kg wet, 400 kg dry
Launch date (UTC)
2024-12-29 (1 year ago)
Launch vehicle
FALCON 9
Launch site
Air Force Eastern Test Range (AFETR)
Object type
Payload
Rocket body
Debris
Shape & HBR
Box + 22 Pan, 5.0 m
Radar Cross Section
41.175 m², Large (>1 m²)

Expand to show TLE details & history
Last TLE update: 18 hours ago

TLE from 18 hours ago
0 AGILA
1 62456U 24252C   26149.92683580  .00000000  00000-0  00000+0 0  9990
2 62456   0.0185 110.6503 0001777 344.6558 277.9696  1.00272058  4973
Epoch: 2026-05-29T22:14Z
TLE epoch observation values (Epoch: 2026-05-29T22:14:38.613Z)
Latitude
-0.00527°
Longitude
152.13942°
Altitude
35,784.935 km
Speed
3.075 km/s
True Right ascension
00h 53m 00s
True Declination
0° 00' 19"
Sunlit
Object was in daylight at epoch
Visualization orbit readout
Latitude
Unknown
Longitude
Unknown
Altitude
Unknown
Speed
Unknown
Apparent Right ascension
Unknown
Apparent Declination
Unknown
Sunlit
N/A
Visualization observer readout
Local Sidereal Time
01:23:40
Azimuth
Unknown
Elevation
Unknown
Doppler factor
Unknown
Orbital elements
Apogee altitude
35,795.082 km
Perigee altitude
35,780.096 km
Semi-major axis
42,165.726 km
Eccentricity
0.00018
Inclination
0.0185°
RAAN
110.6503°
Arg. of periapsis
344.6558°
True anomaly
277.94943°
Mean anomaly
277.9696°
Eccentric anomaly
277.95952°
Mean motion
0.25067 °/min
Orbital period
1,436.15 mins
BSTAR
0
Loading maneuver chart data...
Computing Atmospheric mass density...
Loading historical data...
Loading historical data...
Loading historical data...
Loading historical data...
Loading historical data...
Loading historical data...
Loading historical data...
Other satellites on launch #252 in the year 2024 (2024-12-29 UTC)

Documentation

Showing up to 5 results
|